| time (UTC) | temp F | wind direction | speed MPH | gust MPH | rain 1hr in | rain 24hr in | rain mn in | humidity % | barometer mb |
| 20260505010039 | 78 | 15 | 10.0 | 14.0 | 0.00 | 0.00 | 0.00 | 19 | 997.6 |
| 20260505004536 | 80 | 18 | 12.0 | 17.0 | 0.00 | 0.00 | 0.00 | 20 | 997.7 |
| 20260505003033 | 81 | 17 | 15.0 | 20.0 | 0.00 | 0.00 | 0.00 | 20 | 997.8 |
| 20260505001532 | 81 | 17 | 16.0 | 21.0 | 0.00 | 0.00 | 0.00 | 22 | 998.0 |
| 20260505000032 | 82 | 20 | 14.0 | 23.0 | 0.00 | 0.00 | 0.00 | 22 | 998.1 |
| 20260504234528 | 82 | 224 | 15.0 | 20.0 | 0.00 | 0.00 | 0.00 | 21 | 998.3 |
| 20260504233027 | 82 | 244 | 17.0 | 23.0 | 0.00 | 0.00 | 0.00 | 21 | 998.6 |
| 20260504231526 | 83 | 245 | 13.0 | 20.0 | 0.00 | 0.00 | 0.00 | 21 | 998.6 |
| 20260504230027 | 83 | 262 | 13.0 | 17.0 | 0.00 | 0.00 | 0.00 | 21 | 998.7 |
| 20260504224522 | 83 | 267 | 14.0 | 25.0 | 0.00 | 0.00 | 0.00 | 21 | 999.0 |
| 20260504223020 | 82 | 215 | 13.0 | 24.0 | 0.00 | 0.00 | 0.00 | 21 | 998.9 |
| 20260504221522 | 82 | 202 | 10.0 | 16.0 | 0.00 | 0.00 | 0.00 | 22 | 999.1 |
| 20260504220021 | 82 | 243 | 17.0 | 25.0 | 0.00 | 0.00 | 0.00 | 21 | 999.4 |
| 20260504214517 | 83 | 267 | 15.0 | 30.0 | 0.00 | 0.00 | 0.00 | 20 | 999.6 |
| 20260504213014 | 83 | 255 | 19.0 | 28.0 | 0.00 | 0.00 | 0.00 | 19 | 999.5 |
| 20260504211512 | 83 | 246 | 14.0 | 26.0 | 0.00 | 0.00 | 0.00 | 18 | 999.8 |
| 20260504210010 | 84 | 271 | 15.0 | 28.0 | 0.00 | 0.00 | 0.00 | 19 | 1000.0 |
| 20260504204508 | 83 | 242 | 16.0 | 22.0 | 0.00 | 0.00 | 0.00 | 21 | 1000.1 |
| 20260504203010 | 82 | 267 | 17.0 | 32.0 | 0.00 | 0.00 | 0.00 | 22 | 1000.5 |
| 20260504201505 | 82 | 291 | 16.0 | 31.0 | 0.00 | 0.00 | 0.00 | 22 | 1000.8 |
| 20260504194600 | 81 | 248 | 23.0 | 29.0 | 0.00 | 0.00 | 0.00 | 22 | 1001.2 |
| 20260504193100 | 81 | 246 | 21.0 | 30.0 | 0.00 | 0.00 | 0.00 | 23 | 1001.6 |
| 20260504191600 | 81 | 229 | 20.0 | 32.0 | 0.00 | 0.00 | 0.00 | 23 | 1001.6 |
| 20260504190109 | 81 | 275 | 17.0 | 27.0 | 0.00 | 0.00 | 0.00 | 24 | 1001.6 |
| 20260504184614 | 80 | 255 | 21.0 | 30.0 | 0.00 | 0.00 | 0.00 | 24 | 1001.7 |
| 20260504183054 | 80 | 267 | 19.0 | 32.0 | 0.00 | 0.00 | 0.00 | 24 | 1001.9 |
| 20260504181552 | 80 | 279 | 18.0 | 36.0 | 0.00 | 0.00 | 0.00 | 24 | 1002.1 |
| 20260504180051 | 80 | 250 | 21.0 | 33.0 | 0.00 | 0.00 | 0.00 | 24 | 1002.5 |
| 20260504174548 | 81 | 260 | 17.0 | 29.0 | 0.00 | 0.00 | 0.00 | 24 | 1002.6 |
| 20260504173049 | 81 | 286 | 18.0 | 28.0 | 0.00 | 0.00 | 0.00 | 24 | 1002.9 |
| 20260504171544 | 80 | 263 | 21.0 | 29.0 | 0.00 | 0.00 | 0.00 | 23 | 1003.0 |
| 20260504081525 | 58 | 251 | 16.0 | 20.0 | 0.00 | 0.00 | 0.00 | 62 | 1004.8 |
| 20260504044553 | 62 | 360 | 13.0 | 18.0 | 0.00 | 0.00 | 0.00 | 39 | 1007.5 |
| 20260504043052 | 63 | 360 | 14.0 | 20.0 | 0.00 | 0.00 | 0.00 | 38 | 1007.6 |
| 20260504041549 | 63 | 360 | 16.0 | 19.0 | 0.00 | 0.00 | 0.00 | 37 | 1007.8 |
| 20260504034558 | 63 | 360 | 13.0 | 16.0 | 0.00 | 0.00 | 0.00 | 36 | 1008.0 |
| 20260504033114 | 63 | 202 | 12.0 | 16.0 | 0.00 | 0.00 | 0.00 | 35 | 1008.0 |
| 20260504031547 | 64 | 190 | 10.0 | 15.0 | 0.00 | 0.00 | 0.00 | 35 | 1007.8 |
| 20260504030048 | 65 | 206 | 13.0 | 19.0 | 0.00 | 0.00 | 0.00 | 33 | 1007.8 |
| 20260504024545 | 66 | 360 | 13.0 | 16.0 | 0.00 | 0.00 | 0.00 | 32 | 1007.8 |
| 20260504023058 | 66 | 219 | 13.0 | 18.0 | 0.00 | 0.00 | 0.00 | 31 | 1007.7 |
| 20260504021544 | 66 | 360 | 11.0 | 15.0 | 0.00 | 0.00 | 0.00 | 31 | 1007.6 |
| 20260504020042 | 67 | 360 | 12.0 | 16.0 | 0.00 | 0.00 | 0.00 | 29 | 1007.4 |
| 20260504014549 | 69 | 207 | 11.0 | 13.0 | 0.00 | 0.00 | 0.00 | 27 | 1007.2 |
| 20260504013046 | 72 | 200 | 10.0 | 17.0 | 0.00 | 0.00 | 0.00 | 25 | 1007.1 |
| 20260504011540 | 74 | 207 | 12.0 | 20.0 | 0.00 | 0.00 | 0.00 | 24 | 1007.2 |